FREGAT R/B (47720 NORAD) Tracking and Keplerian Element Data
This shows tracking and keplerian element data for the satellite.
Feedback or suggestion? Click here.
Element | Value |
Catalog | 47720 |
Name | FREGAT R/B |
Epoch Orbit | 31 |
Epoch Day | 77.93831087 |
Epoch Year | 2021 |
RAAN | 292.2893 |
Inclination | 63.3211 |
Eccentricity | 0.726904 |
Argument of Perigee | 269.5666 |
Mean Anonmoly | 14.8604 |
Mean Motion | 1.98969503 |
Decay Rate | -1.173E-05 |
L1 | 1 47720U 21016B 21077.93831087 -.00001173 00000-0 10574-2 0 9998 |
L2 | 2 47720 63.3211 292.2893 7269040 269.5666 14.8604 1.98969503 318 |
Live tracking and technical data element details for FREGAT R/B (NORAD 47720). FREGAT R/B can be tracked NOW for your location showing map with azimuth and elevation plus other details from your city location.
Track the satellite on the map from your city or location and see movement details for azimuth, elevation, latitude, longitude, range, height, and movement on the map or in text.
IsCatalogInMostPopularTable: catalog: 47720, numindb: 10
Update: records affected: 1
GetName: 47720 FREGAT R/B
Hit Count: updated at: Sat, 10 Apr 2021 19:19:57 GMT